This is the latest recevied weather packets stored in our database for station/object IW1CBG-3. If no packets are shown the sender has not sent any weather packets the latest 10 day(s).
| Time | Temp. | Humidity | Pressure | Rain* | Wind** | Luminosity | Snow |
|---|---|---|---|---|---|---|---|
| 1788596177 | 22.78° C | 83% | 1028.4 hPa | 0 mm | - | - | - |
| 1788595579 | 22.78° C | 83% | 1028.4 hPa | 0 mm | - | - | - |
| 1788594977 | 22.22° C | 83% | 1028.5 hPa | 0 mm | - | - | - |
| 1788594378 | 22.78° C | 76% | 1028.3 hPa | 0 mm | - | - | - |
| 1788593778 | 21.11° C | 78% | 1028.6 hPa | 0 mm | - | - | - |
| 1788593177 | 21.11° C | 79% | 1028.7 hPa | 0 mm | - | - | - |
| 1788592578 | 20° C | 81% | 1028.7 hPa | 0 mm | - | - | - |
| 1788591978 | 20° C | 83% | 1028.8 hPa | 0 mm | - | - | - |
| 1788591378 | 19.44° C | 83% | 1029.1 hPa | 0 mm | - | - | - |
| 1788590778 | 19.44° C | 85% | 1028.9 hPa | 0 mm | - | - | - |
| 1788590178 | 18.89° C | 88% | 1029.1 hPa | 0 mm | - | - | - |
| 1788589578 | 18.33° C | 89% | 1028.9 hPa | 0 mm | - | - | - |
| 1788588978 | 17.78° C | 91% | 1029.1 hPa | 0 mm | - | - | - |
| 1788588379 | 17.78° C | 93% | 1029.1 hPa | 0 mm | - | - | - |
| 1788587778 | 17.22° C | 94% | 1029.3 hPa | 0 mm | - | - | - |
| 1788587179 | 17.22° C | 95% | 1029.4 hPa | 0 mm | - | - | - |
| 1788586578 | 16.67° C | 95% | 1029.4 hPa | 0 mm | - | - | - |
| 1788585978 | 16.67° C | 96% | 1029.5 hPa | 0 mm | - | - | - |
| 1788585378 | 16.67° C | 96% | 1029.5 hPa | 0 mm | - | - | - |
| 1788584780 | 16.67° C | 97% | 1029 hPa | 0 mm | - | - | - |
| 1788584179 | 16.67° C | 98% | 1029.3 hPa | 0 mm | - | - | - |
| 1788583578 | 16.67° C | 98% | 1029.1 hPa | 0 mm | - | - | - |
| 1788582978 | 16.67° C | 98% | 1029.1 hPa | 0 mm | - | - | - |
| 1788582379 | 16.67° C | 97% | 1029.2 hPa | 0 mm | - | - | - |
| 1788581778 | 16.67° C | 98% | 1029 hPa | 0 mm | - | - | - |
* Rain latest hour (hover to see other rain measurements)
** Current wind speed in m/s (hover to see current wind gust speed)